Aeroporto :
LOGIN :

Iscrizione | Disclaimer

   EN    FR    IT 

 










Sommario :    VFR   VFR Marginale   IFR   IFR Intensivo   IFR Molto Intensivo
Visibilità : 
Base nubi : 
>= 8 km
>= 3000ft
5 / 8 km
1000 / 3000 ft
1500m / 5 km
500 / 1000 ft
800 / 1500m
200 / 500 ft
< 800m
< 200 ft
Simboli :   Temporali  Nebbia  Neve Forte  Precipitazioni Forti  Vento > 20 kt
SIGMETs :   Varie  Temporali  Ghiacco  Turbolenza  Onda orograficha  Ceneri Vulcaniche






- Altitudine del aeroporto : 156 ft
- Codice IATA : OMO


LQMO - Mostar

ULTIMO METAR :
  • 031300Z 10004KT 040V140 9999 -RA FEW035 SCT050 BKN081 20/11 Q1008

METARs OBSOLETI :
  • 031200Z 03004KT 9999 FEW036 FEW040TCU SCT063 19/13 Q1008
  • 031100Z 15005KT 100V200 9999 FEW040 FEW045TCU SCT080 21/10 Q1009

TAF TAF LQMO
Valido dal 03 a 12 ore il 04 a 12 ore UTC


031100Z 0312/0412 15005KT 9999 FEW050 TX26/0313Z TN15/0403Z
PROB40
TEMPO 0312/0317 23010KT FEW035TCU SCT045
TEMPO 0410/0412 21010KT



MetMap, La meteo Aeronautica in un colpo d'occhio ! - Copyright ORBIFLY Dicembre 2007 - Disclaimer

ORBIFLY MET'MAP TEAM :

Programmazione e sviluppo : Alexandra Zaïnal
Concezione : Baudouin d'Aumeries
Aiuto per la programmazione : Marc-Olivier Méhu
Supporto tecnico e logistico : Manuel Goepfert
Aiuto per la traduzione : Arnaldo La Scala

Contatto : metmap@orbifly.com




FONTI E CREDITI :

   NOAA